Weather History for Monroe, WI

Change the Weather History Date:

Saturday, October 8, 2011

  Actual Average Record
Temperature  
Mean Temperature 70 °F -  
Max Temperature 80 °F 0 °F 80 °F (1997)
Min Temperature 59 °F - 30 °F (2000)
Cooling Degree Days 4    
Growing Degree Days 20 (Base 50)    
Moisture  
Dew Point 50 °F    
Average Humidity 53    
Maximum Humidity 77    
Minimum Humidity 28    
Precipitation  
Precipitation 0.00 in - - ()
Sea Level Pressure  
Sea Level Pressure 30.24 in    
Wind  
Wind Speed 13 mph (South)    
Max Wind Speed 18 mph    
Max Gust Speed 25 mph    
Visibility 10 miles    
Events      
Averages and records for this station are not official NWS values.
T = Trace of Precipitation, MM = Missing Value Source: NWS Daily Summary

Daily Weather History Graph

Daily Weather History Graph

Search for Another Location

Airport:

Trip Planner

Search our weather history database for the weather conditions in past years. The results will help you decide how hot, cold, wet, or windy it might be!

Date:

Astronomy

Oct. 08, 2011 Rise Set
Actual Time 7:03 AM CDT 6:28 PM CDT
Civil Twilight 6:34 AM CDT 6:56 PM CDT
Nautical Twilight 6:02 AM CDT 7:28 PM CDT
Astronomical Twilight 5:29 AM CDT 8:01 PM CDT
Moon 4:41 PM CDT (10/8) 3:46 AM CDT (10/8)
Length of Visible Light 12h 21m
Length of Day
11h 25m
Waxing Gibbous, 90% of the Moon is Illuminated
Oct 8
Waxing Gibbous
Oct 11
Full
Oct 19
Last Quarter
Oct 26
New
Nov 2
First Quarter

Hourly Weather History & Observations

Time (CDT) Temp. Dew Point Humidity Pressure Visibility Wind Dir Wind Speed Gust Speed Precip Events Conditions
12:15 AM 64.4 °F 50.0 °F 59% 30.19 in 10.0 mi South 17.3 mph - N/A   Clear
12:35 AM 64.4 °F 50.0 °F 59% 30.19 in 10.0 mi South 13.8 mph - N/A   Clear
12:55 AM 64.4 °F 50.0 °F 59% 30.19 in 10.0 mi South 16.1 mph - N/A   Clear
1:15 AM 64.4 °F 50.0 °F 59% 30.20 in 10.0 mi SSW 15.0 mph - N/A   Clear
1:35 AM 64.4 °F 50.0 °F 59% 30.20 in 10.0 mi SSW 11.5 mph 17.3 mph N/A   Clear
1:55 AM 62.6 °F 50.0 °F 63% 30.21 in 10.0 mi SSW 11.5 mph - N/A   Clear
2:15 AM 62.6 °F 50.0 °F 63% 30.21 in 10.0 mi South 12.7 mph - N/A   Clear
2:35 AM 62.6 °F 50.0 °F 63% 30.21 in 10.0 mi SSW 12.7 mph - N/A   Clear
2:55 AM 60.8 °F 50.0 °F 68% 30.21 in 10.0 mi SSW 12.7 mph - N/A   Clear
3:35 AM 60.8 °F 50.0 °F 68% 30.22 in 10.0 mi South 10.4 mph - N/A   Clear
3:55 AM 60.8 °F 50.0 °F 68% 30.22 in 10.0 mi South 10.4 mph - N/A   Clear
4:15 AM 60.8 °F 50.0 °F 68% 30.23 in 10.0 mi South 11.5 mph - N/A   Clear
4:35 AM 59.0 °F 50.0 °F 72% 30.22 in 10.0 mi South 11.5 mph - N/A   Clear
4:55 AM 59.0 °F 50.0 °F 72% 30.23 in 10.0 mi SSW 10.4 mph - N/A   Clear
5:15 AM 59.0 °F 50.0 °F 72% 30.24 in 10.0 mi South 10.4 mph - N/A   Clear
5:35 AM 59.0 °F 50.0 °F 72% 30.24 in 10.0 mi South 10.4 mph - N/A   Clear
6:15 AM 59.0 °F 50.0 °F 72% 30.25 in 10.0 mi South 10.4 mph - N/A   Clear
6:35 AM 59.0 °F 50.0 °F 72% 30.25 in 10.0 mi South 11.5 mph - N/A   Clear
6:55 AM 59.0 °F 51.8 °F 77% 30.26 in 10.0 mi South 11.5 mph - N/A   Clear
7:15 AM 59.0 °F 51.8 °F 77% 30.26 in 10.0 mi South 11.5 mph - N/A   Clear
7:35 AM 59.0 °F 51.8 °F 77% 30.26 in 10.0 mi South 10.4 mph - N/A   Clear
7:55 AM 60.8 °F 51.8 °F 72% 30.26 in 10.0 mi South 10.4 mph - N/A   Clear
8:15 AM 60.8 °F 51.8 °F 72% 30.27 in 10.0 mi South 9.2 mph - N/A   Clear
8:35 AM 62.6 °F 53.6 °F 72% 30.27 in 10.0 mi South 10.4 mph - N/A   Clear
8:55 AM 64.4 °F 53.6 °F 68% 30.27 in 10.0 mi South 11.5 mph - N/A   Clear
9:15 AM 64.4 °F 53.6 °F 68% 30.27 in 10.0 mi South 12.7 mph - N/A   Clear
9:55 AM 69.8 °F 53.6 °F 56% 30.28 in 10.0 mi South 12.7 mph 21.9 mph N/A   Clear
10:15 AM 69.8 °F 53.6 °F 56% 30.28 in 10.0 mi SSW 15.0 mph 19.6 mph N/A   Clear
10:35 AM 71.6 °F 53.6 °F 53% 30.28 in 10.0 mi SSW 18.4 mph - N/A   Clear
11:15 AM 73.4 °F 51.8 °F 47% 30.27 in 10.0 mi SSW 18.4 mph 25.3 mph N/A   Clear
11:35 AM 75.2 °F 51.8 °F 44% 30.27 in 10.0 mi SSW 16.1 mph 25.3 mph N/A   Clear
11:55 AM 77.0 °F 51.8 °F 41% 30.26 in 10.0 mi South 15.0 mph 19.6 mph N/A   Clear
12:15 PM 77.0 °F 50.0 °F 39% 30.26 in 10.0 mi SSW 18.4 mph 24.2 mph N/A   Clear
12:35 PM 77.0 °F 51.8 °F 41% 30.25 in 10.0 mi South 15.0 mph - N/A   Clear
12:55 PM 78.8 °F 50.0 °F 36% 30.25 in 10.0 mi SSW 13.8 mph 21.9 mph N/A   Clear
1:15 PM 78.8 °F 50.0 °F 36% 30.24 in 10.0 mi South 12.7 mph 19.6 mph N/A   Clear
1:35 PM 78.8 °F 48.2 °F 34% 30.24 in 10.0 mi South 15.0 mph 19.6 mph N/A   Clear
2:15 PM 80.6 °F 48.2 °F 32% 30.23 in 10.0 mi South 15.0 mph - N/A   Clear
2:35 PM 80.6 °F 46.4 °F 30% 30.23 in 10.0 mi South 12.7 mph 20.7 mph N/A   Clear
2:55 PM 80.6 °F 44.6 °F 28% 30.23 in 10.0 mi South 16.1 mph 20.7 mph N/A   Clear
3:15 PM 80.6 °F 44.6 °F 28% 30.22 in 10.0 mi South 12.7 mph 17.3 mph N/A   Clear
3:35 PM 80.6 °F 46.4 °F 30% 30.22 in 10.0 mi SSW 15.0 mph 19.6 mph N/A   Clear
3:55 PM 80.6 °F 44.6 °F 28% 30.22 in 10.0 mi SSW 15.0 mph - N/A   Clear
4:15 PM 80.6 °F 44.6 °F 28% 30.22 in 10.0 mi South 15.0 mph 20.7 mph N/A   Clear
4:35 PM 80.6 °F 46.4 °F 30% 30.22 in 10.0 mi South 10.4 mph - N/A   Clear
4:55 PM 78.8 °F 46.4 °F 32% 30.22 in 10.0 mi South 12.7 mph - N/A   Clear
5:15 PM 78.8 °F 46.4 °F 32% 30.22 in 10.0 mi South 10.4 mph - N/A   Clear
5:35 PM 77.0 °F 48.2 °F 36% 30.22 in 10.0 mi South 10.4 mph - N/A   Clear
5:55 PM 77.0 °F 50.0 °F 39% 30.22 in 10.0 mi South 10.4 mph - N/A   Clear
6:15 PM 73.4 °F 50.0 °F 44% 30.22 in 10.0 mi South 8.1 mph - N/A   Clear
6:35 PM 71.6 °F 50.0 °F 46% 30.23 in 10.0 mi SSE 6.9 mph - N/A   Clear
6:55 PM 69.8 °F 50.0 °F 49% 30.23 in 10.0 mi SSE 8.1 mph - N/A   Clear
7:15 PM 69.8 °F 50.0 °F 49% 30.23 in 10.0 mi SSE 9.2 mph - N/A   Clear
7:35 PM 69.8 °F 50.0 °F 49% 30.23 in 10.0 mi SSE 10.4 mph - N/A   Clear
7:55 PM 69.8 °F 50.0 °F 49% 30.23 in 10.0 mi SSE 10.4 mph - N/A   Clear
8:15 PM 69.8 °F 50.0 °F 49% 30.23 in 10.0 mi South 11.5 mph - N/A   Clear
8:35 PM 69.8 °F 50.0 °F 49% 30.23 in 10.0 mi South 11.5 mph - N/A   Clear
9:15 PM 68.0 °F 50.0 °F 52% 30.24 in 10.0 mi South 11.5 mph - N/A   Clear
9:35 PM 68.0 °F 50.0 °F 52% 30.24 in 10.0 mi South 11.5 mph - N/A   Clear
9:55 PM 66.2 °F 50.0 °F 56% 30.24 in 10.0 mi South 12.7 mph - N/A   Clear
10:15 PM 64.4 °F 50.0 °F 59% 30.25 in 10.0 mi South 11.5 mph - N/A   Clear
10:35 PM 64.4 °F 48.2 °F 56% 30.25 in 10.0 mi South 11.5 mph - N/A   Clear
10:55 PM 64.4 °F 46.4 °F 52% 30.26 in 10.0 mi South 11.5 mph - N/A   Clear
11:15 PM 62.6 °F 46.4 °F 55% 30.26 in 10.0 mi South 10.4 mph - N/A   Clear
11:35 PM 62.6 °F 46.4 °F 55% 30.26 in 10.0 mi South 10.4 mph - N/A   Clear
11:55 PM 62.6 °F 46.4 °F 55% 30.27 in 10.0 mi South 10.4 mph - N/A   Clear